Location: ?????????
(54.7630°N, 39.4991°E)
Time: 22:47:10
(UTC+00:00)

NOSS 3-4 (C) - Pass Details

Date: 14 April 2026
Orbit: 773 x 1438 km, 63.4° (Epoch: 26 December)

Event Time Altitude Azimuth Distance (km) Brightness Sun altitude
Rises 19:55:23 0° 242° (WSW) 3,281 6.2 -23.1°
Reaches altitude 10° 19:57:43 10° 246° (WSW) 2,390 5.5 -23.2°
Maximum altitude 20:03:08 64° 328° (NNW) 961 3.6 -23.5°
Drops below altitude 10° 20:09:22 10° 51° (NE) 2,727 6.1 -23.8°
Sets 20:12:11 0° 54° (NE) 3,781 6.8 -23.9°
